UAE121 OMDB-LTFM

Flight info

Callsign UAE121
Flight time N/A
Altitude 38000
Route SENPA N571 ALPOB L768 RABLA M556 OBROS L768 SOLOB M556 ALREP L768 ORDIG M556 MEDMA L768 HFR V45 RAF L768 FIRAS R655 KTN R785 NIKAS L619 VESAR UB545 EVKIT UL619 MUT UL620 OKLAM UL619 OSVEL UL620 KFK UM855 SISPI
Aircraft B77W/H-SDE1E2E3FGHIJ2J3J4J5M1RWXY/LB1D1

Departure

Time 2026-05-05 14:39
Airport Dubai International Airport (OMDB)

Arrival

Time N/A
Airport İstanbul Airport (LTFM)
Time Latitude Longitude Altitude Speed Heading
2026-05-05 14:19 25.25439 55.35277 26 ft 0 kts 211°
2026-05-05 14:28 25.25448 55.35283 32 ft 2 kts 210°
2026-05-05 14:28 25.25463 55.35292 29 ft 2 kts 211°
2026-05-05 14:28 25.25476 55.35301 32 ft 2 kts 211°
2026-05-05 14:29 25.25490 55.35312 32 ft 2 kts 236°
2026-05-05 14:29 25.25498 55.35328 32 ft 2 kts 249°
2026-05-05 14:29 25.25502 55.35340 32 ft 2 kts 254°
2026-05-05 14:29 25.25506 55.35358 32 ft 2 kts 256°
2026-05-05 14:30 25.25507 55.35374 32 ft 0 kts 300°
2026-05-05 14:32 25.25541 55.35311 31 ft 24 kts 301°
2026-05-05 14:32 25.25597 55.35211 28 ft 15 kts 301°
2026-05-05 14:33 25.25662 55.35153 31 ft 9 kts
2026-05-05 14:33 25.25776 55.35226 30 ft 30 kts 31°
2026-05-05 14:33 25.25935 55.35333 28 ft 29 kts 31°
2026-05-05 14:33 25.25996 55.35495 27 ft 25 kts 97°
2026-05-05 14:34 25.25916 55.35669 30 ft 26 kts 121°
2026-05-05 14:34 25.25824 55.35836 29 ft 26 kts 121°
2026-05-05 14:34 25.25723 55.36016 26 ft 33 kts 121°
2026-05-05 14:34 25.25595 55.36248 27 ft 35 kts 122°
2026-05-05 14:35 25.25480 55.36452 27 ft 29 kts 121°
2026-05-05 14:35 25.25379 55.36637 27 ft 28 kts 122°
2026-05-05 14:35 25.25281 55.36814 27 ft 24 kts 122°
2026-05-05 14:35 25.25216 55.36933 27 ft 12 kts 121°
2026-05-05 14:36 25.25199 55.36963 27 ft 18 kts 121°
2026-05-05 14:36 25.25130 55.37087 29 ft 30 kts 121°
2026-05-05 14:36 25.25012 55.37300 32 ft 29 kts 121°
2026-05-05 14:36 25.24912 55.37481 37 ft 26 kts 121°
2026-05-05 14:37 25.24819 55.37648 40 ft 26 kts 122°
2026-05-05 14:37 25.24727 55.37813 44 ft 24 kts 121°
2026-05-05 14:37 25.24684 55.37955 47 ft 14 kts 58°
2026-05-05 14:37 25.24773 55.38021 47 ft 17 kts 23°
2026-05-05 14:38 25.24836 55.37983 46 ft 8 kts 303°
2026-05-05 14:38 25.24837 55.37980 45 ft 0 kts 303°
2026-05-05 14:39 25.24884 55.37898 44 ft 39 kts 302°
2026-05-05 14:39 25.25235 55.37266 30 ft 154 kts 302°
2026-05-05 14:39 25.25935 55.36022 641 ft 209 kts 304°
2026-05-05 14:39 25.26746 55.34583 1758 ft 231 kts 305°
2026-05-05 14:40 25.27590 55.33062 2666 ft 239 kts 303°
2026-05-05 14:40 25.28491 55.31431 3211 ft 259 kts 303°
2026-05-05 14:40 25.29305 55.29619 3834 ft 269 kts 284°
2026-05-05 14:40 25.29419 55.27559 4708 ft 270 kts 269°
2026-05-05 14:41 25.29398 55.25455 5568 ft 275 kts 269°
2026-05-05 14:41 25.29408 55.23328 6469 ft 280 kts 270°
2026-05-05 14:41 25.29452 55.21162 7393 ft 283 kts 271°
2026-05-05 14:41 25.29523 55.18972 8290 ft 288 kts 272°
2026-05-05 14:42 25.29617 55.16741 9185 ft 294 kts 273°
2026-05-05 14:42 25.29728 55.14467 10030 ft 299 kts 273°
2026-05-05 14:42 25.29852 55.12136 10704 ft 313 kts 273°
2026-05-05 14:42 25.29992 55.09633 10939 ft 341 kts 274°
2026-05-05 14:43 25.30151 55.06907 11155 ft 369 kts 274°
2026-05-05 14:43 25.30319 55.04065 11756 ft 381 kts 274°
2026-05-05 14:43 25.30498 55.01079 12560 ft 388 kts 274°
2026-05-05 14:43 25.30676 54.98127 13431 ft 392 kts 274°
2026-05-05 14:44 25.30858 54.95111 14261 ft 393 kts 274°
2026-05-05 14:44 25.31040 54.92087 14745 ft 396 kts 274°
2026-05-05 14:44 25.31223 54.89032 14756 ft 401 kts 274°
2026-05-05 14:44 25.31407 54.85962 14760 ft 399 kts 274°
2026-05-05 14:45 25.31588 54.82908 14755 ft 397 kts 274°
2026-05-05 14:45 25.31769 54.79860 14790 ft 399 kts 274°
2026-05-05 14:45 25.31951 54.76786 15459 ft 403 kts 274°
2026-05-05 14:45 25.32132 54.73701 16418 ft 402 kts 274°
2026-05-05 14:46 25.32312 54.70643 17205 ft 406 kts 274°
2026-05-05 14:46 25.32488 54.67635 17896 ft 412 kts 274°
2026-05-05 14:46 25.32673 54.64460 18613 ft 415 kts 274°
2026-05-05 14:46 25.32858 54.61281 19331 ft 418 kts 274°
2026-05-05 14:47 25.33044 54.58060 20039 ft 422 kts 274°
2026-05-05 14:47 25.33273 54.54956 20703 ft 425 kts 277°
2026-05-05 14:47 25.33780 54.51726 21400 ft 428 kts 283°
2026-05-05 14:47 25.34581 54.48588 22099 ft 431 kts 287°
2026-05-05 14:48 25.35435 54.45532 22773 ft 435 kts 287°
2026-05-05 14:48 25.35700 54.44590 22978 ft 436 kts 287°
2026-05-05 14:48 25.35794 54.44253 23045 ft 436 kts 287°
2026-05-05 14:48 25.36522 54.41647 23543 ft 439 kts 287°
2026-05-05 14:49 25.37414 54.38408 24118 ft 441 kts 286°
2026-05-05 14:49 25.38297 54.35161 24730 ft 442 kts 286°
2026-05-05 14:49 25.39178 54.31899 25340 ft 443 kts 286°
2026-05-05 14:49 25.40045 54.28683 25932 ft 445 kts 285°
2026-05-05 14:50 25.40906 54.25380 26524 ft 446 kts 284°
2026-05-05 14:50 25.41724 54.22061 27070 ft 448 kts 284°
2026-05-05 14:50 25.42534 54.18718 27606 ft 450 kts 284°
2026-05-05 14:50 25.43351 54.15366 28135 ft 452 kts 284°
2026-05-05 14:51 25.44178 54.12007 28657 ft 454 kts 284°
2026-05-05 14:51 25.45009 54.08632 29144 ft 456 kts 284°
2026-05-05 14:51 25.45838 54.05244 29600 ft 458 kts 283°
2026-05-05 14:51 25.46669 54.01833 30006 ft 459 kts 283°
2026-05-05 14:52 25.47486 53.98473 30443 ft 458 kts 283°
2026-05-05 14:52 25.48310 53.95082 30966 ft 455 kts 283°
2026-05-05 14:52 25.49131 53.91699 31517 ft 452 kts 283°
2026-05-05 14:52 25.49944 53.88347 32039 ft 450 kts 283°
2026-05-05 14:53 25.50753 53.85008 32529 ft 448 kts 283°
2026-05-05 14:53 25.51559 53.81680 33024 ft 447 kts 282°
2026-05-05 14:53 25.52361 53.78367 33525 ft 444 kts 282°
2026-05-05 14:53 25.53157 53.75071 33972 ft 443 kts 282°
2026-05-05 14:54 25.53932 53.71833 34340 ft 441 kts 282°
2026-05-05 14:54 25.54710 53.68546 34698 ft 441 kts 282°
2026-05-05 14:54 25.55487 53.65257 35049 ft 440 kts 282°
2026-05-05 14:54 25.56258 53.61987 35415 ft 439 kts 282°
2026-05-05 14:55 25.57029 53.58719 35787 ft 438 kts 282°
2026-05-05 14:55 25.57796 53.55466 36139 ft 436 kts 282°
2026-05-05 14:55 25.58562 53.52220 36478 ft 435 kts 282°
2026-05-05 14:55 25.59327 53.48972 36811 ft 434 kts 282°
2026-05-05 14:56 25.60085 53.45748 37142 ft 433 kts 282°
2026-05-05 14:56 25.60844 53.42522 37466 ft 432 kts 282°
2026-05-05 14:56 25.61592 53.39340 37691 ft 433 kts 282°
2026-05-05 14:56 25.62358 53.36097 37728 ft 437 kts 282°
2026-05-05 14:57 25.63892 53.29620 37753 ft 431 kts 282°
2026-05-05 14:57 25.65399 53.23241 37763 ft 426 kts 282°
2026-05-05 14:58 25.66891 53.16895 37770 ft 426 kts 282°
2026-05-05 14:58 25.68386 53.10524 37779 ft 434 kts 282°
2026-05-05 14:59 25.69956 53.03993 37771 ft 443 kts 284°
2026-05-05 14:59 25.72279 52.97594 37769 ft 453 kts 293°
2026-05-05 15:00 25.74722 52.92468 37767 ft 453 kts 294°
2026-05-05 15:00 25.78182 52.85248 37769 ft 458 kts 293°
2026-05-05 15:01 25.81157 52.78969 37773 ft 461 kts 293°
2026-05-05 15:01 25.84132 52.72654 37769 ft 462 kts 293°
2026-05-05 15:02 25.87110 52.66327 37771 ft 462 kts 293°
2026-05-05 15:02 25.90060 52.60047 37765 ft 461 kts 292°
2026-05-05 15:03 25.92911 52.53677 37764 ft 459 kts 291°
2026-05-05 15:03 25.95708 52.47311 37768 ft 458 kts 291°
2026-05-05 15:04 25.98513 52.40976 37771 ft 456 kts 291°
2026-05-05 15:04 26.01321 52.34660 37764 ft 456 kts 291°
2026-05-05 15:05 26.05517 52.25235 37762 ft 455 kts 291°
2026-05-05 15:06 26.08321 52.18919 37760 ft 455 kts 291°
2026-05-05 15:06 26.11114 52.12616 37761 ft 455 kts 291°
2026-05-05 15:07 26.13890 52.06342 37763 ft 455 kts 291°
2026-05-05 15:07 26.16682 52.00026 37765 ft 455 kts 291°
2026-05-05 15:08 26.19514 51.93726 37765 ft 455 kts 291°
2026-05-05 15:08 26.22324 51.87422 37764 ft 454 kts 291°
2026-05-05 15:09 26.25088 51.81156 37757 ft 454 kts 291°
2026-05-05 15:09 26.27896 51.74852 37761 ft 454 kts 291°
2026-05-05 15:10 26.30709 51.68556 37759 ft 454 kts 291°
2026-05-05 15:10 26.33513 51.62255 37762 ft 453 kts 291°
2026-05-05 15:11 26.36309 51.55963 37762 ft 453 kts 290°
2026-05-05 15:11 26.38810 51.49614 37759 ft 447 kts 284°
2026-05-05 15:12 26.40847 51.43067 37764 ft 447 kts 284°
2026-05-05 15:12 26.42920 51.36518 37752 ft 448 kts 284°
2026-05-05 15:13 26.45042 51.30029 37759 ft 448 kts 285°
2026-05-05 15:13 26.47170 51.23491 37755 ft 448 kts 284°
2026-05-05 15:14 26.49248 51.16947 37756 ft 448 kts 284°
2026-05-05 15:14 26.51326 51.10381 37756 ft 448 kts 284°
2026-05-05 15:15 26.53388 51.03870 37756 ft 448 kts 284°
2026-05-05 15:15 26.55453 50.97347 37749 ft 449 kts 284°